Regional Weather Roundup
Issued by NWS Charleston, SC

Current Version | Previous Version | Graphics & Text | Print | Product List | Glossary On
Versions: 1 2 3 4 5 6 7 8 9 10 11 12 13 14 15 16 17 18 19 20 21 22 23 24 25 26 27 28 29 30 31 32 33 34 35 36 37 38 39 40 41 42 43 44 45 46 47 48 49 50
000
ASUS42 KCHS 020811
RWRCHS

REGIONAL WEATHER ROUNDUP
NATIONAL WEATHER SERVICE CHARLESTON SC
300 AM EST MON MAR 02 2015

NOTE: "FAIR" INDICATES FEW OR NO CLOUDS BELOW 12,000 FEET WITH NO
SIGNIFICANT WEATHER AND/OR OBSTRUCTIONS TO VISIBILITY.

NOT ALL STATIONS ARE QUALITY CONTROLLED BY THE NATIONAL
WEATHER SERVICE. USE DATA WITH CAUTION...ESPECIALLY
DEWPOINT OBSERVATIONS.

SCZ027-030-031-034>040-042>050-020900-
...SOUTHEAST SOUTH CAROLINA...

CITY           SKY/WX    TMP DP  RH WIND       PRES   REMARKS
N CHARLESTON   FOG       44  43  96 W3        30.31F VSB 1/8
WATERFRONT PRK   N/A     45 N/A N/A SW3         N/A
MOUNT PLEASANT FOG       45  45 100 CALM      30.30F VSB 3/4
PINOPOLIS        N/A     45  43  93 VRB3      30.21F
MONCKS CORNER  CLOUDY    45  43  93 CALM      30.31S FOG
SUMMERVILLE    FOG       43  43 100 CALM      30.31F VSB 3/4
BEAUFORT MCAS  FOG       46  45  96 CALM      30.31F VSB 1
BEAUFORT ARPT  CLOUDY    45  45 100 CALM      30.32S FOG
HILTON HEAD IS CLOUDY    46  46 100 CALM      30.34S FOG
WALTERBORO     FOG       45  45 100 W5        30.33S VSB 1/2
ALLENDALE      FOG       45  45 100 CALM      30.32F VSB 1/4

...SOUTHERN MIDLANDS AND PEE DEE...

CITY           SKY/WX    TMP DP  RH WIND       PRES   REMARKS
GEORGETOWN     NOT AVBL
KINGSTREE      NOT AVBL
ORANGEBURG     FOG       44  42  93 W3        30.29F VSB 1/2
BARNWELL       FOG       45  45 100 CALM      30.33S VSB 1/2
AIKEN          FOG       43  43 100 SW8       30.33S VSB 1/4
MANNING        FOG      N/A N/A N/A SW3       30.30F VSB 1/4
COLUMBIA       FOG       44  42  93 SW3       30.27F VSB 1/2
SUMTER         FOG       42  42  98 SW5       30.26F VSB 1
FLORENCE       FOG       42  41  96 W5        30.27F VSB 1/4
MYRTLE BEACH   CLOUDY    45  41  87 CALM      30.29F
N MYRTLE BEACH FOG       44  42  93 SW7       30.27F VSB 1/2

$$

GAZ063-065-086>088-099>101-113>116-118-119-134>141-150-020900-
...SOUTHEAST GEORGIA...

CITY           SKY/WX    TMP DP  RH WIND       PRES   REMARKS
SAVANNAH ARPT  FOG       46  45  96 CALM      30.33F VSB 1/4
HUNTER AAF     FOG       47  47 100 CALM      30.31F VSB 3/4
FORT STEWART   CLOUDY    48  46  93 NW1       30.31F FOG
STATESBORO     FOG       46  46 100 CALM      30.32F VSB 3/4
SYLVANIA       FOG       46  46 100 CALM      30.33F VSB 1/2
CLAXTON        CLOUDY    46  46 100 CALM      30.33F FOG

...CSRA...CENTRAL AND FAR SOUTHEAST GEORGIA...

CITY           SKY/WX    TMP DP  RH WIND       PRES   REMARKS
THOMSON        CLOUDY    45  45 100 CALM      30.36F VSB 1/2
AUGUSTA-BUSH   CLOUDY    44  42  93 CALM      30.31F FOG
AUGUSTA-DANIEL FOG       44  43  96 S3        30.29F VSB 3/4
SWAINSBORO     FOG       46  46 100 W3        30.33F VSB 1/4
VIDALIA        FOG       46  46 100 CALM      30.33F VSB 1/2
EASTMAN        FOG       47  47 100 CALM      30.35F VSB 1/2
HAZLEHURST     FOG       49  49 100 CALM      30.32F VSB 1/2
ALMA           FOG       50  49  96 W3        30.33F VSB 1/4
WAYCROSS       FOG       55  55 100 CALM      30.33F VSB 1/2
JESUP          FOG       52  52 100 CALM      30.33F VSB 1
BAXLEY         FOG       52  50  93 NW3       30.33S VSB 1/2
BRUNSWICK      CLOUDY    52  50  93 CALM      30.34F VSB 1/4
SAINT SIMONS   FOG       52  51  97 CALM      30.33F VSB 3/4

$$

SCZ027-028-034-036>038-045-046-048>050-GAZ119-141-020900-
...LAKE AND SUPPLEMENTAL COASTAL OBSERVATIONS...

STATION/POSITION TIME  TEMP    WIND        PRES    WAVE   SWELL
                       AIR SEA DIR/SP/G            HT/PER HT/PER/DIR
                 (UTC) (F)     (DEG/KT/KT) (MB)    (FT/S) (FT/S/D)
UPR LAKE MARION  NOT AVBL
WINYAH BAY       0645   42     220/  2     1025.0
LAKE MURRAY      0700   42     240/  4/  5 1025.7F
ACE BASIN NERRS  NOT AVBL
FORT PULASKI     0700   46 49  300/  3/  3 1027.9F
SAPELO ISLAND    0700   50     320/  2     1027.0F

$$

ANZ835-935-AMZ111-154-330-350-352-354-370-450-454-472-020900-
...C-MAN AND BUOY OBSERVATIONS...

STATION/POSITION TIME  TEMP    WIND        PRES    WAVE   SWELL
                       AIR SEA DIR/SP/G            HT/PER HT/PER/DIR
                 (UTC) (F)     (DEG/KT/KT) (MB)    (FT/S) (FT/S/D)
BUOY 41004       0750   55 68  330/  6/ 10 1026.2F   5/ 8   5/ 8
BUOY 41008       0750   49 53  350/  4/  6 1026.7F   4/ 9   3/100/ 9
FOLLY BEACH CMAN 0800   45     220/  3/  4 1026.7F
CAPERS NEARSHORE NOT AVBL
FRIPP NEARSHORE  0700   46     330/  4/  6 1026.4F


STATION/POSITION TIME  TEMP    WIND        PRES    WAVE   SWELL
                       AIR SEA DIR/SP/G            HT/PER HT/PER/DIR
                 (UTC) (F)     (DEG/KT/KT) (MB)    (FT/S) (FT/S/D)
5E ST. MARYS GA  0721      52                N/A     4/ 8   2/ 90/11
FRYING PAN BUOY  0750   53 62  270/  6/  8 1025.9F   5/ 8   5/110/ 8
BUOY 41025       NOT AVBL
CAPE LOOKOUT NC  0700   46     230/  4/  6 1024.5F
BUOY 41002       0750   71 72  210/ 16/ 17 1026.0F   7/ 9   5/ 90/ 9
BUOY 41010       0720   73 75  140/  8/ 10 1025.5F
ST AUGUSTINE FL  0800   52     360/ 14/ 16 1027.0F


$$



USA.gov is the U.S. government's official web portal to all federal, state and local government web resources and services.